Location: Baia Mare
(47.6567°N, 23.5850°E)
Time: 14:38:14
(UTC+03:00)

ISS - Pass Details

Date: 16 July 2019
Orbit: 409 x 418 km, 51.6° (Epoch: 21 July)

Event Time Altitude Azimuth Distance (km) Brightness Sun altitude
Rises 02:32:16 0° 283° (WNW) 2,348 0.0 -19.6°
Reaches altitude 10° 02:34:26 10° 291° (WNW) 1,484 -0.9 -19.5°
Maximum altitude 02:37:36 40° 2° (N) 628 -2.4 -19.3°
Drops below altitude 10° 02:40:45 10° 74° (ENE) 1,479 -0.6 -19.2°
Sets 02:42:55 0° 82° (E) 2,339 0.4 -19.1°
